Flag for Germany Weather past 2 weeks in Maintal, Hesse, Germany

Now
67 °F

Partly sunny.


Feels Like: 67 °F
Forecast: 54 / 83 °F
Wind: 5 mph from Southwest

Location: Frankfurt / M-Flughafen

Current Time: Aug 28, 2015 at 7:51:39 PM

Latest Report: Aug 28, 2015 at 7:00 PM


Visibility: 28 mi

Pressure: 30.12 "Hg

Humidity: 88%

Dew point: 63 °F

Location of MaintalLocation

Historic Weather in Maintal — Graph

°F

Maintal temperature yesterday

Maximum temperature yesterday: 84 °F (at 3:00 PM)
Minimum temperature yesterday: 58 °F (at 6:00 AM)
Average temperature yesterday: 70 °F

Past Weeks' High & Low Weather Summary

 TemperatureHumidityPressure
High93 °F (Aug 13, 6:00 PM)99% (Aug 15, 6:00 AM)30.29 "Hg (Aug 15, 6:00 AM)
Low50 °F (Aug 19, 6:00 AM)22% (Aug 22, 4:00 PM)29.66 "Hg (Aug 23, 7:00 PM)
Average67 °F68%29.96 "Hg
* Reported Aug 13 6:00 PM — Aug 28 6:00 PM, Maintal, Weather by CustomWeather, © 2015

Note: Actual official high and low records may vary slightly from our data, if they occured in-between our weather recording intervals... More about our weather records

Advertising

Maintal weather history for previous 24 hours

 ConditionsComfort  
Time TempWeatherWind HumidityBarometerVisibility
6:00 PM
Fri, Aug 28
68 °FOvercast.3 mph81%30.11 "Hg28 mi
4:00 PM66 °FLow clouds.1 mph84%30.10 "Hg17 mi
3:00 PM66 °FLow clouds.2 mph86%30.09 "Hg12 mi
2:00 PM63 °FLow clouds.N/A93%30.09 "Hg6 mi
1:00 PM62 °FDrizzle. Low clouds.1 mph94%30.08 "Hg4 mi
12:00 PM61 °FRain. Low clouds.2 mph95%30.07 "Hg4 mi
10:00 AM60 °FRain. Low clouds.2 mph99%30.04 "Hg3 mi
9:00 AM59 °FDrizzle. Low clouds.2 mph98%30.03 "Hg2 mi
8:00 AM59 °FLight rain. Low clouds.1 mph98%30.00 "Hg16 mi
7:00 AM59 °FRain. Low clouds.3 mph98%29.99 "Hg6 mi
5:00 AM60 °FLight rain. Low clouds.1 mph95%29.95 "Hg19 mi
4:00 AM61 °FLight rain. Low clouds.5 mph95%29.93 "Hg12 mi
3:00 AM65 °FLight rain. Overcast.3 mph98%29.90 "Hg22 mi
2:00 AM65 °FLight rain. Overcast.5 mph98%29.90 "Hg6 mi
10:00 PM
Thu, Aug 27
71 °FLight rain. Overcast.3 mph75%29.83 "Hg25 mi
9:00 PM70 °FLight rain. Overcast.6 mph80%29.83 "Hg19 mi
8:00 PM75 °FLight rain. Overcast.10 mph60%29.81 "Hg28 mi
7:00 PM80 °FOvercast.3 mph47%29.78 "Hg31 mi
Weather by CustomWeather, © 2015

See weather overviewHow to use our weather pages